When you browse on this site, cookies collect data to enhance your experience and personalize the content and advertising you see.
Visit our Privacy Policy to learn more. By continuing to use the site, you agree to this use of cookies and data.
  • In Hungary
  • List of Countries
  • For 7 days
  • Water Temperature
  • Weather Map
  • News
  • Weather Widgets
  • user-avatar
    Login

    Hourly Weather Alekseevka

    Today, 14 October, Monday

    Time Temperature Precipitation Wind Pressure Humidity
    00:00 +13°C° 0 mm 3 mps 766 mmHg 70%
    01:00 +13°C° 0 mm 3 mps 766 mmHg 71%
    02:00 +14°C° 0 mm 2 mps 767 mmHg 72%
    03:00 +13°C° 0 mm 2 mps 767 mmHg 74%
    04:00 +13°C° 0 mm 2 mps 767 mmHg 76%
    05:00 +13°C° 0 mm 2 mps 766 mmHg 78%
    06:00 +13°C° 0 mm 1 mps 766 mmHg 80%
    07:00 +14°C° 0 mm 1 mps 767 mmHg 76%
    08:00 +15°C° 0 mm 1 mps 767 mmHg 71%
    09:00 +16°C° 0 mm 1 mps 767 mmHg 67%
    10:00 +19°C° 0 mm 1 mps 767 mmHg 61%
    11:00 +20°C° 0 mm 2 mps 767 mmHg 54%
    12:00 +21°C° 0 mm 2 mps 767 mmHg 48%
    13:00 +23°C° 0 mm 2 mps 767 mmHg 46%
    14:00 +24°C° 0 mm 2 mps 766 mmHg 43%
    15:00 +24°C° 0 mm 2 mps 766 mmHg 41%
    16:00 +23°C° 0 mm 2 mps 766 mmHg 44%
    17:00 +20°C° 0 mm 2 mps 766 mmHg 48%
    18:00 +19°C° 0 mm 2 mps 765 mmHg 52%
    19:00 +19°C° 0 mm 1 mps 766 mmHg 54%
    20:00 +19°C° 0 mm 1 mps 766 mmHg 56%
    21:00 +18°C° 0 mm 1 mps 766 mmHg 58%
    22:00 +18°C° 0 mm 1 mps 766 mmHg 59%
    23:00 +16°C° 0 mm 1 mps 765 mmHg 59%

    Tomorrow, 15 October, Tuesday

    Time Temperature Precipitation Wind Pressure Humidity
    00:00 +16°C° 0 mm 1 mps 765 mmHg 60%
    01:00 +15°C° 0 mm 1 mps 765 mmHg 60%
    02:00 +14°C° 0 mm 0 mps 765 mmHg 60%
    03:00 +14°C° 0 mm 0 mps 765 mmHg 60%
    04:00 +13°C° 0 mm 0 mps 765 mmHg 61%
    05:00 +13°C° 0 mm 0 mps 764 mmHg 61%
    06:00 +13°C° 0 mm 0 mps 764 mmHg 61%
    07:00 +14°C° 0 mm 0 mps 764 mmHg 58%
    08:00 +15°C° 0 mm 0 mps 765 mmHg 54%
    09:00 +18°C° 0 mm 1 mps 765 mmHg 50%
    10:00 +20°C° 0 mm 1 mps 765 mmHg 46%
    11:00 +21°C° 0 mm 1 mps 764 mmHg 41%
    12:00 +23°C° 0 mm 1 mps 764 mmHg 36%
    13:00 +23°C° 0 mm 1 mps 764 mmHg 34%
    14:00 +24°C° 0 mm 1 mps 764 mmHg 32%
    15:00 +25°C° 0 mm 1 mps 763 mmHg 30%
    16:00 +23°C° 0 mm 1 mps 763 mmHg 34%
    17:00 +22°C° 0 mm 1 mps 763 mmHg 37%
    18:00 +21°C° 0 mm 1 mps 763 mmHg 40%
    19:00 +20°C° 0 mm 1 mps 763 mmHg 43%
    20:00 +20°C° 0 mm 1 mps 763 mmHg 45%
    21:00 +19°C° 0 mm 1 mps 764 mmHg 47%
    22:00 +18°C° 0 mm 1 mps 764 mmHg 50%
    23:00 +17°C° 0 mm 2 mps 764 mmHg 53%

    Day after tomorrow, 16 October, Wednesday

    Time Temperature Precipitation Wind Pressure Humidity
    00:00 +17°C° 0 mm 2 mps 764 mmHg 55%
    01:00 +16°C° 0 mm 2 mps 764 mmHg 58%
    02:00 +16°C° 0 mm 2 mps 764 mmHg 60%
    03:00 +15°C° 0 mm 2 mps 764 mmHg 62%
    04:00 +15°C° 0 mm 2 mps 764 mmHg 64%
    05:00 +15°C° 0 mm 2 mps 764 mmHg 66%
    06:00 +14°C° 0 mm 2 mps 764 mmHg 68%
    07:00 +15°C° 0 mm 2 mps 764 mmHg 65%
    08:00 +16°C° 0 mm 2 mps 764 mmHg 62%
    09:00 +17°C° 0 mm 3 mps 764 mmHg 58%
    10:00 +19°C° 0 mm 3 mps 764 mmHg 53%
    11:00 +21°C° 0 mm 3 mps 764 mmHg 48%
    12:00 +24°C° 0 mm 3 mps 764 mmHg 43%
    13:00 +24°C° 0 mm 3 mps 764 mmHg 42%
    14:00 +23°C° 0 mm 4 mps 764 mmHg 41%
    15:00 +25°C° 0 mm 4 mps 764 mmHg 40%
    16:00 +22°C° 0 mm 3 mps 764 mmHg 46%
    17:00 +21°C° 0 mm 3 mps 764 mmHg 51%
    18:00 +20°C° 0 mm 3 mps 764 mmHg 56%
    19:00 +19°C° 0 mm 3 mps 764 mmHg 61%
    20:00 +18°C° 0 mm 4 mps 764 mmHg 66%
    21:00 +17°C° 0 mm 4 mps 765 mmHg 70%
    22:00 +17°C° 0 mm 4 mps 765 mmHg 73%
    23:00 +15°C° 0 mm 4 mps 764 mmHg 75%

    17 October, Thursday

    Time Temperature Precipitation Wind Pressure Humidity
    00:00 +16°C° 0 mm 3 mps 764 mmHg 77%
    01:00 +14°C° 0 mm 3 mps 764 mmHg 79%
    02:00 +14°C° 0 mm 3 mps 764 mmHg 80%
    03:00 +13°C° 0 mm 4 mps 764 mmHg 82%
    04:00 +13°C° 0 mm 3 mps 764 mmHg 83%
    05:00 +12°C° 0 mm 3 mps 764 mmHg 83%
    06:00 +12°C° 0 mm 3 mps 765 mmHg 84%
    07:00 +13°C° 0 mm 4 mps 764 mmHg 79%
    08:00 +14°C° 0 mm 4 mps 764 mmHg 74%
    09:00 +14°C° 0 mm 4 mps 764 mmHg 69%
    10:00 +17°C° 0 mm 4 mps 764 mmHg 61%
    11:00 +19°C° 0 mm 4 mps 764 mmHg 54%
    12:00 +21°C° 0 mm 4 mps 764 mmHg 46%
    13:00 +22°C° 0 mm 4 mps 763 mmHg 44%
    14:00 +22°C° 0 mm 4 mps 763 mmHg 42%
    15:00 +23°C° 0 mm 4 mps 763 mmHg 40%
    16:00 +22°C° 0 mm 3 mps 762 mmHg 45%
    17:00 +20°C° 0 mm 3 mps 762 mmHg 49%
    18:00 +19°C° 0 mm 3 mps 762 mmHg 53%
    19:00 +18°C° 0 mm 3 mps 762 mmHg 56%
    20:00 +17°C° 0 mm 3 mps 762 mmHg 59%
    21:00 +17°C° 0 mm 3 mps 762 mmHg 61%
    22:00 +16°C° 0 mm 2 mps 762 mmHg 63%
    23:00 +16°C° 0 mm 2 mps 762 mmHg 66%

    18 October, Friday

    Time Temperature Precipitation Wind Pressure Humidity
    00:00 +15°C° 0 mm 2 mps 762 mmHg 68%
    01:00 +15°C° 0 mm 2 mps 762 mmHg 70%
    02:00 +14°C° 0 mm 2 mps 762 mmHg 72%
    03:00 +14°C° 0 mm 2 mps 761 mmHg 74%
    04:00 +14°C° 0 mm 2 mps 761 mmHg 76%
    05:00 +13°C° 0 mm 2 mps 761 mmHg 78%
    06:00 +13°C° 0 mm 2 mps 761 mmHg 79%
    07:00 +14°C° 0 mm 2 mps 762 mmHg 75%
    08:00 +15°C° 0 mm 2 mps 762 mmHg 70%
    09:00 +16°C° 0 mm 2 mps 762 mmHg 65%
    10:00 +18°C° 0 mm 2 mps 762 mmHg 57%
    11:00 +20°C° 0 mm 3 mps 762 mmHg 50%
    12:00 +22°C° 0 mm 3 mps 762 mmHg 43%
    13:00 +22°C° 0 mm 3 mps 762 mmHg 40%
    14:00 +24°C° 0 mm 3 mps 762 mmHg 37%
    15:00 +25°C° 0 mm 3 mps 762 mmHg 35%
    16:00 +22°C° 0 mm 3 mps 762 mmHg 39%
    17:00 +21°C° 0 mm 3 mps 762 mmHg 44%
    18:00 +19°C° 0 mm 3 mps 762 mmHg 48%
    19:00 +18°C° 0 mm 3 mps 762 mmHg 50%
    20:00 +18°C° 0 mm 3 mps 763 mmHg 53%
    21:00 +17°C° 0 mm 3 mps 763 mmHg 55%
    22:00 +16°C° 0 mm 3 mps 763 mmHg 58%
    23:00 +16°C° 0 mm 3 mps 763 mmHg 61%

    19 October, Saturday

    Time Temperature Precipitation Wind Pressure Humidity
    00:00 +14°C° 0 mm 4 mps 764 mmHg 65%
    01:00 +14°C° 0 mm 4 mps 764 mmHg 70%
    02:00 +13°C° 0 mm 4 mps 764 mmHg 75%
    03:00 +13°C° 0 mm 4 mps 764 mmHg 80%
    04:00 +13°C° 0 mm 4 mps 765 mmHg 83%
    05:00 +12°C° 0 mm 4 mps 765 mmHg 87%
    06:00 +12°C° 0 mm 4 mps 765 mmHg 90%
    07:00 +12°C° 0 mm 4 mps 765 mmHg 87%
    08:00 +13°C° 0 mm 5 mps 766 mmHg 85%
    09:00 +13°C° 0 mm 5 mps 766 mmHg 82%
    10:00 +14°C° 0 mm 5 mps 766 mmHg 77%
    11:00 +15°C° 0 mm 5 mps 766 mmHg 71%
    12:00 +16°C° 0 mm 5 mps 766 mmHg 66%
    13:00 +17°C° 0 mm 5 mps 766 mmHg 63%
    14:00 +17°C° 0 mm 5 mps 766 mmHg 59%
    15:00 +19°C° 0 mm 5 mps 766 mmHg 56%
    16:00 +18°C° 0 mm 4 mps 766 mmHg 57%
    17:00 +17°C° 0 mm 4 mps 766 mmHg 59%
    18:00 +15°C° 0 mm 4 mps 766 mmHg 60%
    19:00 +14°C° 0 mm 4 mps 766 mmHg 62%
    20:00 +13°C° 0 mm 4 mps 766 mmHg 63%
    21:00 +13°C° 0 mm 4 mps 767 mmHg 64%
    22:00 +12°C° 0 mm 4 mps 767 mmHg 65%
    23:00 +11°C° 0 mm 4 mps 767 mmHg 66%
    Show more